Location: Unspecified
(51.0950°N, 12.9690°E)
Time: 05:48:19
(UTC+00:00)

NANOSAT C BR1 - Pass Details

Date: 29 April 2024
Orbit: 556 x 561 km, 98.1° (Epoch: 19 May)

Event Time Altitude Azimuth Distance (km) Brightness Sun altitude
Rises 02:07:29 0° 26° (NNE) 2,774 ? -13.3°
Reaches altitude 10° 02:10:05 10° 43° (NE) 1,872 ? -13.0°
Maximum altitude 02:13:08 20° 92° (E) 1,325 ? -12.7°
Drops below altitude 10° 02:16:11 10° 142° (SE) 1,861 ? -12.3°
Sets 02:18:45 0° 159° (SSE) 2,752 ? -12.0°
